Regional Weather Roundup
Issued by NWS

Home | Current Version | Previous Version | Text Only | Print | Product List | Glossary On
Versions: 1 2 3 4 5 6 7 8 9 10 11 12 13 14 15 16 17 18 19 20 21 22 23 24 25 26 27 28 29 30 31 32 33 34 35 36 37 38 39 40 41 42 43 44 45 46 47 48 49 50
000
ASUS44 KJAN 221510
RWRMS

MISSISSIPPI HOURLY WEATHER ROUNDUP
NATIONAL WEATHER SERVICE JACKSON MS
1000 AM CDT WED OCT 22 2014

NOTE: "FAIR: INDICATES FEW OR NO CLOUDS BELOW 12,000 FEET WITH NO
SIGNIFICANT WEATHER AND/OR OBSTRUCTIONS TO VISIBILITY.

MSZ001>002-007>008-010>013-018>021-025>028-034>036-221600-
NORTHWEST MISSISSIPPI

CITY           SKY/WX    TMP DP  RH WIND       PRES   REMARKS
GREENWOOD      NOT AVBL
GREENVILLE     NOT AVBL
$$

MSZ003>006-009-014>017-022>024-029>033-037>039-221600-
NORTHEAST MISSISSIPPI

CITY           SKY/WX    TMP DP  RH WIND       PRES   REMARKS
COLUMBUS AFB   NOT AVBL
TUPELO         NOT AVBL
$$

MSZ040-058-221600-
CENTRAL MISSISSIPPI

CITY           SKY/WX    TMP DP  RH WIND       PRES   REMARKS
JACKSON INTL   NOT AVBL
JACKSON HAWKNS NOT AVBL
MERIDIAN KEY   NOT AVBL
MERIDIAN NAS   NOT AVBL
VICKSBURG      NOT AVBL
$$

MSZ059>079-221600-
SOUTH MISSISSIPPI

CITY           SKY/WX    TMP DP  RH WIND       PRES   REMARKS
BROOKHAVEN     FAIR      63  54  72 NE6       30.17R
HATTIESBURG    NOT AVBL
MCCOMB         NOT AVBL
NATCHEZ        NOT AVBL
PINE BELT      NOT AVBL
$$

MSZ080>082-221600-
COASTAL MISSISSIPPI

CITY           SKY/WX    TMP DP  RH WIND       PRES   REMARKS
BILOXI         NOT AVBL
PASCAGOULA     NOT AVBL
GULFPORT       NOT AVBL
$$



USA.gov is the U.S. government's official web portal to all federal, state and local government web resources and services.